Location: Bühlhof
(48.7849°N, 8.6361°E)
Time: 17:55:59
(UTC+00:00)

Cosmos 2082 Rocket - Visible Passes

Search period start: 11 April 2026 00:00
Search period end: 21 April 2026 00:00
Orbit: 830 x 854 km, 71.0° (Epoch: 11 April)

Date Brightness Start Highest point End Pass type
(mag) Time Alt. Az. Time Alt. Az. Time Alt. Az.
11 Apr 3.5 01:57:42 23° SSE 02:00:24 34° ESE 02:05:31 10° NE visible
11 Apr 2.7 03:39:32 13° SW 03:44:20 46° NW 03:49:51 10° NNE visible
12 Apr 3.5 01:43:21 25° SE 01:45:30 33° ESE 01:50:33 10° NE visible
12 Apr 2.6 03:25:10 17° WSW 03:29:24 48° NW 03:34:57 10° NNE visible
13 Apr 3.5 01:28:56 27° SE 01:30:37 32° ESE 01:35:36 10° NE visible
13 Apr 2.6 03:10:46 21° WSW 03:14:27 50° NW 03:20:03 10° NNE visible
14 Apr 3.5 01:14:29 28° SE 01:15:44 30° ESE 01:20:39 10° NE visible
14 Apr 2.6 02:56:18 24° WSW 02:59:32 52° NW 03:05:09 10° NNE visible
15 Apr 3.5 00:59:59 28° ESE 01:00:51 29° ESE 01:05:40 10° NE visible
15 Apr 2.5 02:41:48 29° WSW 02:44:36 54° NW 02:50:14 10° NNE visible
16 Apr 3.6 00:45:28 27° ESE 00:45:57 28° ESE 00:50:43 10° NE visible
16 Apr 2.5 02:27:17 33° WSW 02:29:41 56° WNW 02:35:20 10° NNE visible
17 Apr 3.6 00:30:54 26° ESE 00:31:04 26° ESE 00:35:45 10° NE visible
17 Apr 2.4 02:12:42 38° WSW 02:14:45 59° WNW 02:20:26 10° NNE visible
17 Apr 4.2 03:56:39 10° WNW 04:00:06 16° NW 04:03:33 10° N visible
18 Apr 3.7 00:16:18 25° E 00:16:18 25° E 00:20:47 10° NE visible
18 Apr 2.4 01:58:06 43° WSW 01:59:49 61° WNW 02:05:31 10° NNE visible
18 Apr 4.2 03:41:36 10° WNW 03:45:08 16° NW 03:48:41 10° N visible
19 Apr 3.8 00:01:40 24° E 00:01:40 24° E 00:05:48 10° NE visible
19 Apr 2.3 01:43:28 48° WSW 01:44:54 64° WNW 01:50:37 10° NNE visible
19 Apr 4.2 03:26:32 10° WNW 03:30:10 17° NW 03:33:49 10° N visible
19 Apr 3.8 23:47:00 23° E 23:47:00 23° E 23:50:49 10° NE visible
20 Apr 2.3 01:28:49 53° WSW 01:29:59 66° WNW 01:35:43 10° NNE visible
20 Apr 4.1 03:11:28 10° WNW 03:15:12 17° NW 03:18:57 10° N visible
20 Apr 3.9 23:32:19 21° E 23:32:19 21° E 23:35:50 10° NE visible
